Main page
METAR-TAF:

METAR-TAF

Airports :

Cheyenne County Municipal Airport

St. Francis, Kansas, United States

latitude: 39-45-40N, longitude: 101-47-45W, elevation: 3411 ft

Current weather observation

The report was made 27 minutes ago, at 22:55 UTC
Wind 9 mph from the South
Temperature 97°F
Humidity 14%
Pressure 29.89 in. Hg
Visibility: 10 miles
Clear sky

METAR: KSYF 012255Z AUTO 19008KT 10SM CLR 36/04 A2989 RMK AO2 T03630043 PWINO

Time: 18:22 (23:22 UTC)


TAF: missing

Weather observations and forecasts of more than 4000 airports (METAR and TAF reports).

The available stations are represented by yellow and red dots on the map.

Hover mouse over dot to see the name of the station.

Then click to see weather observations and forecasts.

To change the map : click on the green buttons with a black cross to zoom in, on the green button with a dash to zoom out, or on the green arrows for adjacent maps.


METAR-TAF: